Location: Sungai Bunut
(2.6333°N, 113.7333°E)
Time: 03:51:10
(UTC+00:00)

Cosmos 1697 Rocket - Visible Passes

Search period start: 22 May 2022 00:00
Search period end: 01 June 2022 00:00
Orbit: 831 x 844 km, 71.0° (Epoch: 21 May)

Date Brightness Start Highest point End Pass type
(mag) Time Alt. Az. Time Alt. Az. Time Alt. Az.
22 May 4.4 11:29:35 14° ENE 11:29:35 14° ENE 11:30:58 10° ENE visible
22 May 4.3 13:10:52 30° WNW 13:10:52 30° WNW 13:15:43 10° NNW visible
23 May 4.0 11:07:31 10° SE 11:10:58 17° ESE 11:14:26 10° ENE visible
23 May 4.2 12:49:36 10° SW 12:54:37 33° WNW 12:59:40 10° N visible
24 May 4.2 10:51:42 10° SE 10:54:46 15° ESE 10:57:50 10° ENE visible
24 May 4.0 12:33:16 10° SW 12:38:26 37° WNW 12:43:35 10° N visible
25 May 3.9 12:16:56 10° SW 12:22:13 41° WNW 12:27:30 10° N visible
26 May 3.8 12:00:39 10° SSW 12:06:01 45° WNW 12:11:23 10° N visible
27 May 3.6 11:44:21 10° SSW 11:49:49 50° WNW 11:55:16 10° N visible
28 May 3.4 11:28:05 10° SSW 11:33:36 56° WNW 11:39:08 10° N visible
29 May 3.3 11:11:50 10° SSW 11:17:24 62° WNW 11:22:59 10° N visible
30 May 3.1 10:55:35 10° SSW 11:01:12 69° WNW 11:06:49 10° N visible
31 May 4.9 21:38:43 10° NNE 21:43:34 30° ENE 21:48:25 10° SE visible
